Regional Weather Roundup
Issued by NWS Mt. Holly, NJ

Home | Current Version | Previous Version | Text Only | Print | Product List | Glossary On
Versions: 1 2 3 4 5 6 7 8 9 10 11 12 13 14 15 16 17 18 19 20 21 22 23 24 25 26 27
000
ASUS41 KPHI 270712
RWRPHI

REGIONAL WEATHER ROUNDUP
NATIONAL WEATHER SERVICE MOUNT HOLLY NJ
300 AM EDT WED JUL 27 2016

NOTE:  "FAIR" INDICATES FEW OR NO CLOUDS BELOW 12,000 FEET WITH NO
SIGNIFICANT WEATHER AND/OR OBSTRUCTIONS TO VISIBILITY.

 * = STATION DOES NOT REPORT PRECIPITATION (E.G. RAIN, SNOW, ETC.)
        OR FOG.

NJZ015>026-270800-
SOUTHERN NEW JERSEY

CITY           SKY/WX    TMP DP  RH WIND       PRES   REMARKS
POMONA         CLOUDY    75  71  87 N3        29.93R
WILDWOOD*      PTCLDY    77  73  87 SW3       29.93
MILLVILLE      CLOUDY    75  72  90 CALM      29.92S FOG
WRIGHTSTOWN    CLEAR     73  67  83 NE3       29.91S
MOUNT HOLLY    CLOUDY    72  70  93 CALM      29.93S
TRENTON        PTCLDY    73  65  75 N5        29.93F

$$
NJZ001>014-270800-
NORTHERN NEW JERSEY

CITY           SKY/WX    TMP DP  RH WIND       PRES   REMARKS
SUSSEX         PTCLDY    64  63  96 CALM      29.97S
ANDOVER*         N/A     64  63  96 CALM      29.98R
MORRISTOWN     MOCLDY    66  63  88 CALM      29.95S
NEWARK         MOCLDY    77  62  59 N5        29.93S
TETERBORO      CLEAR     75  61  61 CALM      29.92F
CALDWELL       CLEAR     71  64  78 CALM      29.95S
SOMERVILLE     MOCLDY    68  65  90 CALM      29.93S
ALLAIRE*       CLEAR     73  67  81 NW5       29.95S
TOMS RIVER*    PTCLDY    71  68  90 CALM      29.93F

$$
PAZ043-044-047-054-055-060>062-066>071-270800-
EASTERN PENNSYLVANIA

CITY           SKY/WX    TMP DP  RH WIND       PRES   REMARKS
PHILADELPHIA   CLOUDY    79  67  66 NE6       29.93S
NORTH PHILA    MOCLDY    77  67  71 NE5       29.94F
BLUE BELL*     CLOUDY    70  68  94 CALM      29.93S
DOYLESTOWN     PTCLDY    71  64  78 CALM      29.95S
QUAKERTOWN*    MOCLDY    70  66  88 CALM      29.97S
PERKASIE*      CLOUDY    66  66 100 CALM      29.97S
POTTSTOWN      CLOUDY    73  65  75 NE3       29.96S
LANCASTER      CLOUDY    74  70  87 NE3       29.93F
COATESVILLE    CLOUDY    75  72  88 N3        29.96F
READING        CLOUDY    75  64  68 N5        29.94S
ALLENTOWN      PTCLDY    70  64  81 CALM      29.96S
MOUNT POCONO   CLOUDY    60  57  89 CALM      30.03S
HAZLETON       CLEAR     61  59  94 CALM      30.05S
LEHIGHTON      FAIR      63  63 100 CALM      29.99S
WILKES BARRE   CLEAR     66  60  81 E7        29.99S

$$
DEZALL-MDZ008-012-015-019-020-270800-
DELAWARE AND EASTERN MARYLAND

CITY           SKY/WX    TMP DP  RH WIND       PRES   REMARKS
WILMINGTON     MOCLDY    80  72  76 CALM      29.92F
DOVER          MOCLDY    80  80 100 S5        29.90F
GEORGETOWN     CLOUDY    76  74  93 CALM      29.93S
EASTON         CLOUDY    83  82  97 CALM      29.95S HX  97
PATUXENT       PTCLDY    80  76  87 W6        29.92R
OCEAN CITY     PTCLDY    76  74  93 CALM      29.93R
WALLOPS ISLAND FAIR      79  77  94 CALM      29.93R
SALISBURY      CLOUDY    76  74  93 CALM      29.92R

$$
PAZ001-021-NYZ056-072-MDZ011-DCZ001-270800-
OTHER NEARBY LOCATIONS

CITY           SKY/WX    TMP DP  RH WIND       PRES   REMARKS
HARRISBURG     CLOUDY    77  65  66 NW7       29.93S
STATE COLLEGE  CLOUDY    68  60  75 W5        30.02R
WILLIAMSPORT   PTCLDY    67  61  81 NW5       29.98S
BINGHAMTON     CLEAR     66  60  81 W3        30.01S
NEW YORK CITY  PTCLDY    77  61  57 CALM      29.96S
BALTIMORE      CLOUDY    80  71  74 W8        29.92S
WASHINGTON DC  CLOUDY    82  72  71 W7        29.94S

$$




USA.gov is the U.S. government's official web portal to all federal, state and local government web resources and services.